Flag for Russia Weather past 2 weeks in Kemerovo, Russia

Now
37 °F

Sunny.


Feels Like: 33 °F
Forecast: 43 / 52 °F
Wind: 6 mph from Southeast

Location: Kemerovo

Current Time: Apr 18, 2015 at 11:01:40 AM

Latest Report: Apr 18, 2015 at 10:30 AM


Visibility: 10 mi

Pressure: 30.09 "Hg

Humidity: 52%

Dew point: 21 °F

Location of KemerovoLocation

Historic Weather in Kemerovo — Graph

°F

Kemerovo temperature yesterday

Maximum temperature yesterday: 45 °F (at 4:00 PM)
Minimum temperature yesterday: 27 °F (at 6:00 AM)
Average temperature yesterday: 36 °F

Past Weeks' High & Low Weather Summary

 TemperatureHumidityPressure
High54 °F (Apr 11, 5:00 PM)100% (Apr 3, 9:00 AM)30.54 "Hg (Apr 3, 9:00 AM)
Low27 °F (Apr 3, 9:00 AM)22% (Apr 7, 6:00 PM)29.62 "Hg (Apr 12, 8:30 AM)
Average38 °F61%30.13 "Hg
* Reported Apr 3 9:00 AM — Apr 18 9:30 AM, Kemerovo, Weather by CustomWeather, © 2015

Note: Actual official high and low records may vary slightly from our data, if they occured in-between our weather recording intervals... More about our weather records

Advertising

Kemerovo weather history for previous 24 hours

 ConditionsComfort  
Time TempWeatherWind HumidityBarometerVisibility
9:30 AM
Sat, Apr 18
36 °FSunny.3 mph56%30.09 "Hg10 mi
9:00 AM36 °FSunny.3 mph56%30.09 "Hg10 mi
8:30 AM32 °FSunny.3 mph69%30.09 "Hg10 mi
8:00 AM32 °FSunny.3 mph69%30.09 "Hg10 mi
7:30 AM30 °FSunny.6 mph75%30.09 "Hg10 mi
7:00 AM30 °FClear.3 mph75%30.09 "Hg10 mi
6:30 AM30 °FClear.3 mph69%30.09 "Hg10 mi
6:00 AM30 °FClear.3 mph69%30.09 "Hg10 mi
5:30 AM32 °FClear.3 mph64%30.12 "Hg10 mi
5:00 AM32 °FClear.3 mph64%30.12 "Hg10 mi
4:30 AM34 °FClear.3 mph56%30.12 "Hg10 mi
4:00 AM34 °FClear.3 mph60%30.12 "Hg10 mi
3:30 AM34 °FClear.3 mph56%30.12 "Hg10 mi
3:00 AM34 °FClear.6 mph56%30.15 "Hg10 mi
2:30 AM36 °FClear.3 mph52%30.15 "Hg10 mi
2:00 AM36 °FClear.3 mph52%30.15 "Hg10 mi
1:30 AM37 °FClear.3 mph48%30.18 "Hg10 mi
1:00 AM37 °FClear.6 mph48%30.18 "Hg10 mi
12:30 AM39 °FClear.6 mph45%30.18 "Hg10 mi
12:00 AM39 °FClear.3 mph45%30.18 "Hg10 mi
11:30 PM
Fri, Apr 17
39 °FClear.3 mph45%30.18 "Hg10 mi
11:00 PM39 °FClear.3 mph45%30.18 "Hg10 mi
10:30 PM39 °FClear.3 mph45%30.18 "Hg10 mi
10:00 PM39 °FClear.1 mph45%30.21 "Hg10 mi
9:30 PM41 °FClear.1 mph42%30.21 "Hg10 mi
9:00 PM41 °FSunny.1 mph42%30.21 "Hg10 mi
8:30 PM43 °FSunny.3 mph36%30.21 "Hg10 mi
8:00 PM43 °FSunny.3 mph36%30.21 "Hg10 mi
7:30 PM43 °FSunny.6 mph36%30.21 "Hg10 mi
7:00 PM43 °FSunny.6 mph36%30.21 "Hg10 mi
6:30 PM43 °FSunny.6 mph36%30.21 "Hg10 mi
6:00 PM43 °FSunny.8 mph36%30.18 "Hg10 mi
5:30 PM45 °FSunny.6 mph37%30.21 "Hg10 mi
5:00 PM45 °FSunny.8 mph37%30.18 "Hg10 mi
4:30 PM45 °FSunny.10 mph37%30.21 "Hg10 mi
4:00 PM45 °FSunny.8 mph37%30.21 "Hg10 mi
3:30 PM43 °FSunny.10 mph34%30.21 "Hg10 mi
3:00 PM43 °FSunny.13 mph34%30.21 "Hg10 mi
2:30 PM41 °FPartly sunny.13 mph39%30.21 "HgN/A
2:00 PM41 °FPartly sunny.15 mph39%30.21 "HgN/A
1:30 PM39 °FScattered clouds.10 mph42%30.21 "HgN/A
1:00 PM39 °FScattered clouds.15 mph42%30.21 "HgN/A
12:30 PM39 °FScattered clouds.10 mph45%30.21 "HgN/A
12:00 PM39 °FScattered clouds.10 mph45%30.21 "HgN/A
11:30 AM39 °FScattered clouds.10 mph52%30.21 "HgN/A
11:00 AM39 °FPassing clouds.15 mph52%30.21 "HgN/A
Weather by CustomWeather, © 2015

See weather overviewHow to use our weather pages